Location: Paddlesworth
(51.1000°N, 1.1333°E)
Time: 07:53:26
(UTC+00:00)

Okean 1 - Pass Details

Date: 23 September 2021
Orbit: 539 x 552 km, 82.5° (Epoch: 24 October)

Event Time Altitude Azimuth Distance (km) Brightness Sun altitude
Rises 05:06:07 0° 184° (S) 2,684 6.7 -6.7°
Reaches altitude 10° 05:08:15 10° 182° (S) 1,797 5.9 -6.3°
Maximum altitude 05:12:11 74° 98° (E) 568 3.6 -5.7°
Drops below altitude 10° 05:16:10 10° 14° (NNE) 1,816 6.2 -5.1°
Sets 05:18:20 0° 12° (NNE) 2,714 7.1 -4.8°
